Nome, AK

2:45 PM AKDT on August 22, 2017 (GMT -0800)
Nome

Weather History for PAOM - June, 2013

Change the Weather History Date:

Thursday, June 13, 2013

  Actual Average Record
Temperature  
Mean Temperature 61 °F 47 °F  
Max Temperature 71 °F 55 °F 77 °F (1986)
Min Temperature 50 °F 40 °F 28 °F (1999)
Degree Days  
Heating Degree Days 4 18  
Month to date heating degree days 303 256  
Since 1 June heating degree days 303 256  
Since 1 July heating degree days 14088 13440  
Cooling Degree Days 0 0  
Month to date cooling degree days 0 0  
Year to date cooling degree days 0 0  
Since 1 June cooling degree days 0 0  
Growing Degree Days 8 (Base 50)    
Moisture  
Dew Point 39 °F    
Average Humidity 0    
Maximum Humidity 0    
Minimum Humidity 0    
Precipitation  
Precipitation 0.00 in 0.03 in 2.30 in (1917)
Month to date precipitation 0.38 0.37  
Year to date precipitation 4.63 4.51  
Snow  
Snow 0.00 in 0.00 in 1.00 in (2001)
Month to date snowfall 0.1 0.2  
Since 1 June snowfall 0.1 0.2  
Since 1 July snowfall 65.8 75.6  
Snow Depth 0.00 in    
Sea Level Pressure  
Sea Level Pressure 29.99 in    
Wind  
Wind Speed 10 mph (East)    
Max Wind Speed 23 mph    
Max Gust Speed 26 mph    
Visibility 10 miles    
Events      
T = Trace of Precipitation, MM = Missing Value Source: NWS Daily Summary

Daily Weather History Graph

Daily Weather History Graph

Search for Another Location

Airport or City:

Trip Planner

Search our weather history database for the weather conditions in past years. The results will help you decide how hot, cold, wet, or windy it might be!

Date:

Astronomy

Jun. 13, 2013 Rise Set
Actual Time 4:23 AM AKDT 1:41 AM AKDT
Civil Twilight Sun does not set Sun does not set
Nautical Twilight Sun does not set Sun does not set
Astronomical Twilight Sun does not set Sun does not set
Moon 11:26 AM AKDT (6/13) 2:16 AM AKDT (6/13)
Length of Visible Light 24h 00m
Length of Day
21h 18m
Waxing Crescent, 23% of the Moon is Illuminated
Jun 13
Waxing Crescent
Jun 16
First Quarter
Jun 23
Full
Jun 29
Last Quarter
Jul 7
New

Hourly Weather History & Observations

Time (AKDT) Temp. Dew Point Humidity Pressure Visibility Wind Dir Wind Speed Gust Speed Precip Events Conditions
12:53 AM 62.1 °F 44.1 °F 52% 29.99 in 10.0 mi NNE 3.5 mph - N/A   Mostly Cloudy
1:53 AM 59.0 °F 45.0 °F 60% 29.99 in 10.0 mi NNW 4.6 mph - N/A   Mostly Cloudy
2:53 AM 57.9 °F 43.0 °F 58% 29.99 in 10.0 mi NNW 6.9 mph - N/A   Mostly Cloudy
3:53 AM 62.1 °F 41.0 °F 46% 29.99 in 10.0 mi North 8.1 mph - N/A   Mostly Cloudy
4:53 AM 61.0 °F 42.1 °F 50% 29.98 in 10.0 mi North 10.4 mph - N/A   Mostly Cloudy
5:53 AM 61.0 °F 41.0 °F 48% 29.98 in 10.0 mi North 6.9 mph - N/A   Scattered Clouds
6:53 AM 64.0 °F 41.0 °F 43% 29.98 in 10.0 mi NNE 5.8 mph - N/A   Scattered Clouds
7:53 AM 66.0 °F 41.0 °F 40% 29.98 in 10.0 mi NE 6.9 mph - N/A   Scattered Clouds
8:53 AM 68.0 °F 39.9 °F 36% 29.98 in 10.0 mi East 13.8 mph - N/A   Scattered Clouds
9:53 AM 69.1 °F 39.0 °F 33% 29.99 in 10.0 mi East 17.3 mph - N/A   Partly Cloudy
10:53 AM 70.0 °F 39.0 °F 32% 29.99 in 10.0 mi East 16.1 mph - N/A   Partly Cloudy
11:53 AM 70.0 °F 37.9 °F 31% 29.99 in 10.0 mi East 19.6 mph - N/A   Partly Cloudy
12:53 PM 66.9 °F 37.9 °F 34% 29.99 in 10.0 mi ESE 18.4 mph - N/A   Partly Cloudy
1:53 PM 69.1 °F 36.0 °F 30% 29.99 in 10.0 mi SE 19.6 mph - N/A   Scattered Clouds
2:53 PM 69.1 °F 37.0 °F 31% 29.99 in 10.0 mi ESE 19.6 mph - N/A   Scattered Clouds
3:53 PM 66.9 °F 37.0 °F 33% 30.00 in 10.0 mi ESE 18.4 mph - N/A   Scattered Clouds
4:53 PM 63.0 °F 37.0 °F 38% 30.01 in 10.0 mi ESE 10.4 mph - N/A   Scattered Clouds
5:53 PM 60.1 °F 37.0 °F 42% 30.02 in 10.0 mi SE 8.1 mph - N/A   Scattered Clouds
6:53 PM 61.0 °F 37.9 °F 42% 30.02 in 10.0 mi SE 5.8 mph - N/A   Scattered Clouds
7:53 PM 57.0 °F 37.9 °F 49% 30.01 in 10.0 mi SSE 5.8 mph - N/A   Scattered Clouds
8:53 PM 57.9 °F 37.9 °F 47% 30.00 in 10.0 mi South 4.6 mph - N/A   Mostly Cloudy
9:53 PM 54.0 °F 39.0 °F 57% 30.01 in 10.0 mi SSE 3.5 mph - N/A   Mostly Cloudy
10:53 PM 53.1 °F 37.9 °F 57% 30.00 in 10.0 mi SSE 5.8 mph - N/A   Scattered Clouds
11:53 PM 52.0 °F 39.0 °F 61% 30.00 in 10.0 mi SSE 3.5 mph - N/A   Clear